Temp
65 65 65 65 65 65 64 63 63 63 63 63 63 63 63 63 63 63 63 63 63 64 64 64 64 65 62 59 65 78 78 79 77 78 74 72 66 62 57 60 64 58 63 68 69 70 67
65 65 65 64 64 64 64 63 63 62 62 63 63 63 63 63 62 62 62 63 63 63 63 63 64 63 58 54 78 79 79 78 80 76 74 72 65 67 61 61 58 62 63 65 67 67 66
65 65 64 64 64 64 63 63 62 62 62 62 63 62 62 62 62 62 62 62 62 62 62 63 64 66 61 64 78 77 81 76 78 77 72 73 71 65 63 60 65 65 58 60 62 64 64
64 64 64 64 63 63 63 63 62 62 62 62 62 62 62 61 61 61 62 62 62 62 63 64 64 61 58 77 74 78 77 75 79 77 75 73 72 66 62 64 63 56 54 48 61 62 62
63 63 63 63 63 63 63 62 62 62 61 62 62 61 61 61 61 61 61 61 63 63 65 65 59 56 60 76 73 76 74 74 76 75 74 82 69 61 62 52 48 50 44 49 57 64 61
63 63 62 62 62 62 62 62 62 61 61 61 61 60 60 60 60 61 61 62 64 64 66 71 72 57 67 67 72 74 72 76 71 70 68 64 60 53 52 48 41 45 45 49 49 59 57
62 62 62 62 62 61 61 61 61 61 60 60 60 60 59 60 60 60 57 59 56 58 61 58 61 63 68 72 73 70 75 71 69 62 52 59 51 46 51 54 55 51 48 47 54 60 54
62 62 62 61 61 61 61 60 60 60 60 60 60 59 59 59 59 59 59 56 55 55 49 64 67 67 71 69 64 69 73 62 60 54 55 53 48 57 62 59 55 51 47 48 54 59 55
62 61 61 61 61 61 60 60 60 60 60 59 59 59 59 58 58 59 61 59 64 61 46 62 67 66 67 68 64 64 70 64 58 53 54 49 56 64 60 55 54 50 47 47 47 54 54
61 61 61 61 61 60 60 59 59 59 59 59 59 58 58 58 57 58 58 64 64 62 45 55 61 65 68 66 60 72 71 64 59 54 55 53 59 59 54 54 54 46 54 54 53 46 40
61 61 61 60 60 60 59 59 59 59 59 58 58 58 57 57 50 55 59 61 62 56 39 60 61 71 68 62 63 63 69 63 54 57 53 52 54 53 53 55 57 53 56 52 50 44 40
60 60 60 60 59 59 59 59 59 59 59 58 58 57 57 57 53 58 60 61 56 46 40 55 62 61 58 61 62 64 62 64 63 57 55 55 60 58 56 58 58 59 53 49 47 43 35
60 60 59 59 59 59 58 59 59 59 59 58 57 57 56 60 52 60 59 53 45 41 57 52 54 59 57 56 58 60 56 51 49 44 43 53 53 56 58 51 55 53 42 36 36 34 36
60 60 59 59 59 58 58 58 58 58 58 57 56 57 57 63 60 59 54 47 39 48 47 57 56 55 52 56 55 56 53 48 53 50 44 42 43 51 56 51 47 48 45 37 31 33 38
60 59 59 59 59 58 58 58 58 58 58 57 55 52 55 59 63 57 48 39 37 45 52 50 53 47 49 55 51 51 46 45 49 50 41 42 45 54 56 55 53 47 42 48 42 39 36
59 59 59 59 58 58 58 58 58 58 57 56 45 48 53 61 61 53 45 43 44 53 54 53 44 49 44 48 48 47 44 48 47 52 50 46 40 52 53 54 52 47 51 43 40 32 30
59 59 59 58 58 57 57 58 58 58 56 56 46 46 56 61 57 47 39 41 50 56 54 49 46 45 46 45 46 46 43 46 49 50 50 45 43 45 50 46 46 46 44 45 43 40 34
59 59 58 58 57 57 57 57 57 57 55 50 42 41 58 57 47 42 39 47 51 52 53 52 51 48 45 46 44 46 42 45 50 50 44 45 41 37 45 49 52 49 46 46 37 37 37
58 58 58 58 57 57 56 56 56 56 55 43 39 41 55 54 36 37 45 49 50 48 48 49 47 48 49 45 40 46 44 50 51 48 43 45 39 33 39 44 49 46 48 48 45 41 37
58 58 58 58 57 56 56 56 56 56 55 44 40 35 40 43 41 38 39 43 44 50 49 50 47 48 44 43 46 43 43 48 50 49 54 49 40 37 33 37 44 42 46 46 43 34 35
58 58 58 58 57 56 56 56 56 55 55 46 40 35 39 31 36 38 40 43 41 40 46 47 42 43 40 37 39 39 41 43 49 51 47 42 34 38 41 43 43 44 44 45 41 42 36
57 57 57 57 57 56 56 56 55 55 54 44 36 34 39 35 40 38 38 37 39 41 42 41 39 41 41 36 36 33 37 38 39 42 40 41 34 37 35 42 43 41 44 45 45 45 44
57 57 57 57 57 56 56 55 55 54 51 40 41 42 39 37 35 32 33 37 39 41 43 44 41 38 37 39 42 42 42 42 41 36 36 35 33 31 26 37 39 33 37 41 39 40 40
57 57 57 57 56 56 56 56 55 54 51 42 42 39 34 30 34 35 39 41 39 40 37 42 42 38 42 47 45 43 41 41 41 40 41 34 33 32 26 33 24 35 44 44 40 41 42
57 57 56 57 56 56 55 56 55 55 54 44 43 40 35 27 35 38 39 39 39 39 39 40 42 44 44 41 33 30 32 34 38 41 40 41 34 26 24 24 32 36 39 38 37 35 42
57 57 56 56 56 56 55 55 55 55 54 45 43 43 38 30 30 41 36 37 31 30 33 39 45 45 42 35 30 23 23 29 30 35 43 40 39 31 26 22 23 33 41 47 47 29 43
56 56 56 56 56 56 56 55 55 55 54 46 43 46 39 32 37 39 34 33 38 33 29 33 37 38 40 29 27 23 24 34 26 26 29 30 32 28 29 25 30 38 43 46 31 31 44
56 56 56 56 55 56 56 55 55 55 54 46 43 47 40 34 37 43 44 37 37 35 28 34 32 35 32 27 28 28 27 29 28 32 31 28 24 23 25 23 24 45 43 35 39 42 43
56 56 55 55 55 55 55 55 55 55 54 50 43 47 47 37 37 44 46 48 45 44 37 36 33 34 35 28 27 26 22 23 25 18 34 26 32 29 30 27 40 43 40 44 44 42 42
MSLP
1025.61 1025.51 1025.36 1025.08 1024.89 1024.56 1024.40 1024.06 1023.77 1023.49 1023.08 1022.59 1022.08 1021.56 1021.01 1020.42 1019.80 1019.19 1018.56 1018.03 1017.46 1016.90 1016.47 1016.13 1015.88 1015.49 1015.16 1014.50 1012.71 1011.57 1011.61 1011.53 1011.42 1011.44 1011.57 1011.53 1011.81 1011.98 1012.17 1012.16 1011.78 1011.48 1011.42 1011.12 1010.80 1010.38 1010.12
1025.85 1025.67 1025.52 1025.29 1025.02 1024.72 1024.49 1024.15 1023.86 1023.56 1023.14 1022.64 1022.09 1021.53 1020.93 1020.29 1019.62 1018.89 1018.21 1017.60 1017.04 1016.52 1016.13 1015.87 1015.68 1015.55 1015.22 1013.60 1011.35 1011.38 1011.49 1011.59 1011.45 1011.43 1011.47 1011.52 1011.91 1011.95 1012.21 1012.21 1012.12 1011.67 1011.47 1011.17 1010.76 1010.54 1010.50
1025.99 1025.84 1025.64 1025.50 1025.20 1024.90 1024.51 1024.21 1023.95 1023.60 1023.12 1022.60 1022.05 1021.45 1020.80 1020.07 1019.25 1018.43 1017.71 1017.09 1016.53 1016.05 1015.70 1015.55 1015.47 1015.33 1014.63 1012.55 1011.25 1011.30 1011.29 1011.41 1011.31 1011.39 1011.55 1011.74 1011.83 1012.36 1012.48 1012.40 1011.96 1011.71 1011.70 1011.31 1010.63 1010.30 1010.64
1026.24 1026.09 1025.86 1025.68 1025.42 1025.00 1024.54 1024.27 1023.95 1023.53 1023.07 1022.54 1021.99 1021.35 1020.63 1019.84 1018.91 1017.97 1017.16 1016.45 1015.90 1015.43 1015.19 1015.13 1015.26 1015.14 1013.67 1011.57 1011.36 1011.32 1011.31 1011.41 1011.27 1011.29 1011.48 1011.62 1011.80 1012.24 1012.46 1012.29 1012.16 1012.05 1012.07 1011.93 1010.38 1010.10 1010.52
1026.54 1026.30 1026.04 1025.81 1025.50 1025.09 1024.70 1024.28 1023.88 1023.45 1022.98 1022.47 1021.87 1021.21 1020.41 1019.51 1018.49 1017.49 1016.56 1015.61 1015.03 1014.79 1014.74 1014.88 1015.22 1014.89 1013.10 1011.56 1011.54 1011.45 1011.41 1011.47 1011.43 1011.38 1011.43 1011.60 1011.96 1012.41 1012.54 1012.97 1013.20 1012.84 1012.71 1012.16 1011.08 1010.33 1010.70
1026.76 1026.60 1026.32 1026.00 1025.63 1025.23 1024.77 1024.29 1023.87 1023.42 1022.92 1022.37 1021.74 1021.03 1020.19 1019.25 1018.16 1017.12 1016.10 1014.66 1014.41 1014.49 1014.61 1014.50 1014.34 1014.51 1012.82 1012.19 1011.77 1011.63 1011.45 1011.42 1011.56 1011.70 1011.93 1012.15 1012.53 1012.91 1013.25 1013.57 1013.83 1013.40 1013.00 1012.39 1011.78 1011.08 1011.03
1026.97 1026.82 1026.54 1026.15 1025.75 1025.33 1024.90 1024.43 1024.01 1023.49 1022.91 1022.30 1021.59 1020.81 1019.97 1019.05 1017.98 1016.92 1016.11 1015.06 1015.34 1015.25 1014.72 1014.61 1014.13 1013.71 1012.94 1012.49 1011.88 1011.70 1011.44 1011.61 1011.85 1012.18 1012.59 1012.53 1013.19 1013.33 1013.29 1013.06 1012.96 1012.89 1012.96 1012.90 1011.76 1011.47 1011.48
1027.11 1026.97 1026.68 1026.27 1025.88 1025.43 1025.01 1024.57 1024.11 1023.54 1022.90 1022.23 1021.51 1020.70 1019.79 1018.85 1017.88 1017.09 1016.10 1016.66 1017.34 1017.63 1016.13 1014.24 1013.72 1013.35 1012.86 1012.65 1012.35 1011.75 1011.36 1012.00 1012.27 1012.62 1012.82 1013.26 1013.09 1012.62 1012.47 1012.47 1012.47 1012.63 1012.87 1012.72 1012.03 1011.61 1011.77
1027.31 1027.10 1026.78 1026.35 1025.97 1025.53 1025.12 1024.64 1024.12 1023.53 1022.85 1022.14 1021.38 1020.53 1019.65 1018.75 1017.75 1016.97 1017.04 1017.33 1017.00 1017.25 1016.72 1014.30 1013.37 1013.04 1012.82 1012.76 1012.40 1012.01 1011.87 1012.01 1012.27 1012.72 1012.86 1013.19 1012.53 1012.13 1012.18 1012.30 1012.47 1012.53 1012.83 1012.82 1012.87 1012.45 1011.95
1027.47 1027.24 1026.94 1026.53 1026.07 1025.69 1025.26 1024.73 1024.12 1023.48 1022.78 1022.05 1021.26 1020.40 1019.54 1018.62 1017.83 1017.49 1017.44 1017.33 1016.98 1016.86 1016.40 1014.67 1013.41 1012.93 1012.84 1012.73 1012.57 1012.07 1011.95 1012.35 1012.36 1012.64 1012.71 1012.69 1012.18 1012.09 1012.11 1012.22 1012.37 1012.63 1012.66 1012.88 1013.17 1013.50 1013.61
1027.57 1027.31 1027.04 1026.66 1026.24 1025.77 1025.29 1024.72 1024.15 1023.49 1022.73 1021.90 1021.06 1020.30 1019.60 1018.84 1018.84 1018.10 1018.08 1017.33 1016.98 1016.95 1015.99 1014.36 1013.22 1012.61 1012.64 1012.99 1012.65 1012.43 1012.24 1012.42 1012.81 1012.99 1013.30 1012.76 1012.27 1012.22 1012.21 1012.18 1012.19 1012.52 1012.71 1013.12 1013.48 1014.03 1014.35
1027.76 1027.54 1027.28 1026.88 1026.41 1025.90 1025.35 1024.73 1024.07 1023.35 1022.58 1021.67 1020.76 1020.01 1019.60 1018.76 1018.80 1018.06 1017.48 1017.21 1017.28 1016.88 1015.53 1014.23 1013.35 1012.97 1013.11 1012.90 1012.66 1012.69 1012.72 1012.87 1012.98 1013.26 1013.17 1012.82 1012.29 1012.18 1012.12 1012.12 1012.22 1012.42 1012.78 1013.18 1013.71 1014.53 1014.82
1027.99 1027.76 1027.49 1027.05 1026.54 1025.99 1025.41 1024.75 1024.01 1023.25 1022.39 1021.44 1020.37 1019.61 1019.34 1018.88 1018.41 1017.55 1017.38 1017.50 1017.44 1016.57 1015.57 1015.40 1014.35 1013.79 1013.51 1013.22 1012.93 1013.08 1013.39 1013.74 1014.15 1014.29 1014.16 1013.17 1012.58 1012.46 1012.34 1012.40 1012.40 1012.92 1013.67 1014.19 1014.88 1015.18 1014.46
1028.19 1027.94 1027.65 1027.20 1026.69 1026.12 1025.49 1024.80 1023.98 1023.18 1022.23 1021.25 1019.99 1019.06 1018.54 1018.11 1017.67 1017.38 1017.58 1017.75 1017.70 1017.93 1016.97 1016.10 1015.24 1014.61 1014.27 1013.76 1013.64 1013.69 1014.19 1015.00 1015.15 1015.16 1015.28 1014.75 1013.54 1013.01 1012.73 1012.80 1012.96 1013.40 1013.89 1014.65 1015.09 1015.22 1014.53
1028.34 1028.08 1027.70 1027.28 1026.81 1026.29 1025.60 1024.83 1023.97 1023.09 1022.14 1021.08 1019.83 1019.04 1018.66 1018.00 1017.37 1017.48 1017.94 1018.61 1019.62 1018.85 1018.26 1017.29 1016.04 1015.53 1015.06 1014.66 1014.71 1014.77 1015.90 1016.96 1017.07 1016.83 1016.96 1015.91 1014.54 1013.52 1013.17 1013.07 1013.27 1013.50 1013.87 1014.21 1014.87 1014.86 1014.77
1028.47 1028.22 1027.85 1027.40 1027.02 1026.52 1025.81 1024.98 1024.09 1023.08 1022.01 1021.03 1020.77 1019.89 1018.85 1017.49 1017.20 1017.64 1018.23 1019.50 1019.81 1019.29 1018.71 1018.11 1017.66 1017.01 1016.79 1016.22 1015.94 1016.17 1017.24 1018.47 1018.38 1017.95 1017.62 1017.05 1016.09 1014.41 1013.85 1013.54 1013.47 1013.65 1014.08 1014.54 1015.29 1015.69 1015.51
1028.62 1028.37 1028.07 1027.69 1027.30 1026.77 1026.14 1025.37 1024.48 1023.43 1022.20 1020.85 1020.77 1020.06 1018.38 1017.29 1017.28 1018.20 1019.48 1020.09 1019.97 1019.58 1019.41 1018.85 1018.54 1018.37 1018.31 1018.21 1017.58 1017.61 1018.88 1019.55 1019.17 1018.56 1018.00 1018.06 1017.34 1015.85 1014.67 1014.26 1013.93 1014.16 1014.16 1014.75 1015.49 1015.95 1016.19
1028.80 1028.51 1028.24 1027.95 1027.51 1027.07 1026.47 1025.75 1024.84 1023.93 1022.87 1021.64 1021.80 1020.83 1018.34 1017.63 1018.50 1019.55 1020.63 1020.53 1020.48 1020.14 1019.97 1019.68 1019.35 1019.42 1019.45 1019.22 1018.95 1018.85 1019.46 1019.82 1019.66 1019.51 1019.36 1019.16 1018.57 1017.53 1015.85 1014.79 1014.16 1014.13 1014.57 1015.08 1016.23 1016.62 1016.65
1028.93 1028.68 1028.44 1028.24 1027.77 1027.34 1026.77 1026.15 1025.15 1024.34 1023.92 1023.75 1023.38 1022.11 1019.33 1018.64 1021.21 1021.82 1021.26 1021.36 1021.29 1021.15 1021.18 1021.04 1020.93 1020.98 1020.62 1020.46 1020.39 1019.87 1020.12 1020.43 1020.16 1020.02 1020.06 1019.88 1019.39 1018.67 1017.04 1016.17 1015.27 1015.29 1015.46 1015.94 1016.29 1016.79 1017.26
1029.09 1028.86 1028.59 1028.40 1028.15 1027.62 1027.02 1026.47 1025.54 1024.56 1023.62 1023.65 1023.73 1023.90 1022.97 1022.51 1023.33 1023.01 1022.93 1022.49 1022.38 1022.09 1022.10 1022.21 1022.26 1022.03 1021.80 1021.51 1021.33 1021.13 1021.28 1021.22 1020.89 1020.65 1020.46 1020.34 1020.20 1019.66 1018.95 1018.21 1017.75 1016.95 1016.55 1016.55 1017.14 1017.85 1017.99
1029.20 1029.17 1028.93 1028.70 1028.32 1027.92 1027.52 1026.89 1025.89 1024.92 1023.69 1023.57 1024.69 1025.85 1025.58 1025.87 1025.13 1024.73 1023.91 1023.90 1023.72 1023.67 1023.32 1023.39 1023.62 1023.80 1023.84 1023.33 1022.79 1022.76 1022.79 1022.25 1021.60 1021.64 1021.46 1021.74 1021.36 1020.65 1019.85 1019.05 1018.52 1018.06 1017.65 1017.47 1017.60 1017.85 1018.50
1029.28 1029.31 1029.09 1028.77 1028.54 1028.22 1027.69 1027.10 1026.41 1025.58 1024.21 1024.46 1025.96 1026.60 1026.42 1026.51 1026.01 1025.77 1025.51 1025.67 1025.22 1024.94 1024.77 1024.79 1025.14 1025.01 1024.69 1024.92 1025.19 1024.66 1024.53 1023.88 1023.28 1022.80 1022.82 1022.75 1022.42 1021.87 1020.89 1019.81 1018.97 1018.41 1018.04 1017.74 1017.96 1018.13 1018.37
1029.42 1029.37 1029.29 1029.09 1028.73 1028.49 1028.25 1027.72 1027.32 1026.72 1025.62 1026.38 1026.70 1026.67 1027.15 1027.62 1027.16 1026.82 1027.30 1026.94 1026.40 1026.17 1025.89 1025.95 1025.95 1025.82 1025.56 1025.68 1025.55 1025.15 1024.89 1024.60 1024.28 1024.24 1024.08 1024.05 1023.57 1023.24 1022.10 1021.01 1019.82 1019.68 1019.80 1018.58 1019.12 1019.56 1019.71
1029.51 1029.48 1029.43 1029.31 1029.09 1028.84 1028.55 1028.15 1027.85 1027.52 1027.19 1027.55 1027.64 1027.53 1027.89 1028.61 1027.99 1027.89 1027.71 1027.45 1027.17 1026.97 1026.86 1026.56 1026.43 1026.39 1026.13 1025.57 1025.09 1024.41 1024.02 1023.91 1023.99 1023.78 1024.05 1024.22 1024.18 1023.98 1023.51 1022.44 1021.68 1022.00 1021.00 1020.40 1020.42 1021.08 1021.34
1029.49 1029.49 1029.43 1029.49 1029.22 1029.11 1028.91 1028.60 1028.47 1028.17 1027.87 1027.95 1028.01 1028.11 1028.55 1029.07 1028.61 1028.10 1028.03 1027.79 1027.56 1027.54 1027.16 1027.02 1026.74 1026.55 1026.19 1026.01 1025.90 1025.31 1024.35 1023.95 1023.41 1023.23 1023.21 1023.67 1024.41 1024.70 1024.16 1023.60 1022.50 1022.01 1022.10 1022.12 1021.66 1022.25 1022.27
1029.48 1029.48 1029.51 1029.40 1029.35 1029.29 1029.17 1029.13 1028.94 1028.82 1028.40 1028.46 1028.50 1028.37 1028.76 1029.18 1029.08 1028.49 1028.29 1028.29 1028.40 1028.58 1028.16 1027.69 1026.92 1026.63 1026.54 1026.85 1026.89 1026.89 1026.14 1025.20 1024.50 1023.45 1022.65 1023.40 1024.03 1024.61 1024.61 1024.40 1023.54 1023.43 1022.68 1021.49 1020.92 1022.29 1022.47
1029.33 1029.44 1029.46 1029.38 1029.45 1029.44 1029.39 1029.36 1029.32 1029.12 1028.92 1029.04 1029.11 1028.67 1029.07 1029.50 1028.84 1028.57 1028.52 1028.68 1028.63 1028.92 1029.07 1028.59 1028.28 1027.57 1027.26 1027.89 1028.07 1027.84 1027.25 1026.12 1025.83 1025.13 1024.38 1024.41 1024.84 1025.14 1024.78 1024.53 1023.74 1023.37 1022.49 1021.57 1021.80 1022.91 1022.40
1029.21 1029.29 1029.40 1029.40 1029.47 1029.42 1029.49 1029.52 1029.47 1029.31 1029.33 1029.43 1029.51 1029.07 1029.46 1029.79 1029.21 1028.59 1028.48 1028.46 1028.51 1028.75 1029.31 1029.07 1028.94 1028.49 1028.44 1028.73 1028.97 1028.94 1028.33 1027.88 1027.33 1026.57 1025.79 1025.74 1025.71 1025.62 1025.27 1024.59 1023.90 1023.24 1022.82 1023.37 1023.22 1022.50 1022.44
1028.98 1029.19 1029.31 1029.44 1029.35 1029.42 1029.42 1029.58 1029.51 1029.45 1029.58 1029.60 1029.86 1029.65 1029.55 1030.04 1029.55 1028.70 1028.22 1027.88 1027.90 1028.15 1028.85 1029.00 1029.16 1029.19 1028.92 1029.18 1029.61 1029.80 1029.87 1029.06 1028.45 1027.85 1026.61 1026.63 1026.24 1026.25 1026.03 1025.00 1023.41 1022.99 1023.15 1022.88 1022.71 1022.75 1022.48
Wind_Speed
14 14 14 15 15 17 17 17 18 19 19 20 20 21 22 23 24 25 25 24 24 23 21 19 17 13 4 1 6 3 5 5 1 3 3 3 5 3 3 4 6 1 3 7 7 8 2
13 13 13 14 15 17 17 17 18 19 20 20 21 22 23 24 25 26 26 25 23 21 20 17 14 5 1 1 3 7 6 4 3 2 5 4 2 4 3 4 2 4 4 7 7 9 4
12 12 12 12 14 16 17 17 18 19 20 21 22 23 24 25 25 26 27 24 23 20 19 15 9 3 2 9 3 5 4 2 1 2 3 3 4 6 6 6 3 6 6 8 9 7 7
12 13 13 13 14 15 16 17 18 19 20 21 23 24 25 25 26 27 27 24 20 19 15 10 1 2 5 3 1 1 2 3 3 2 1 1 3 2 3 4 8 3 2 4 9 6 3
12 13 13 14 15 16 16 17 18 19 20 22 23 24 26 26 27 28 27 27 21 13 4 2 2 1 6 1 2 4 1 3 5 3 3 2 1 3 5 2 6 4 2 2 7 3 4
13 13 13 14 15 16 17 18 19 20 21 22 23 24 25 27 28 29 28 24 4 3 1 4 5 2 5 1 1 3 3 2 1 3 2 1 1 1 5 5 3 4 4 6 6 5 3
13 13 14 15 16 17 18 19 20 21 21 23 23 24 26 27 28 29 15 5 7 5 5 1 2 3 3 7 2 3 3 1 2 2 2 4 4 4 6 4 4 0 3 5 8 1 3
12 13 14 15 16 17 19 20 20 21 22 23 24 25 26 27 27 25 8 6 4 4 6 6 3 3 4 1 3 3 2 2 2 4 1 4 6 7 4 1 2 2 4 8 7 5 5
12 13 14 15 16 18 19 20 21 22 23 24 25 25 26 27 27 5 10 6 5 6 1 4 1 2 3 2 3 3 3 2 4 3 6 6 5 4 1 3 3 3 3 3 2 6 5
12 12 13 15 16 18 19 20 22 23 24 24 24 26 26 26 5 5 4 7 7 2 4 1 1 1 1 1 2 1 2 2 3 3 3 4 1 2 1 3 2 4 1 2 3 6 3
13 13 14 16 17 19 20 21 22 23 23 24 25 25 24 19 4 4 5 7 7 4 5 1 2 1 2 1 2 1 1 1 3 5 3 8 3 1 2 3 2 5 2 3 1 1 3
12 14 15 16 18 19 21 22 23 23 24 26 27 25 19 2 2 4 6 6 3 4 3 2 3 1 1 2 2 3 0 0 3 3 3 9 1 3 5 2 2 3 4 4 2 3 2
12 14 15 16 18 19 21 23 24 26 26 27 28 25 13 3 3 7 5 3 5 7 4 7 3 5 6 3 3 4 3 1 1 4 4 6 2 1 1 3 2 3 4 4 3 3 6
12 14 16 17 19 21 22 24 25 26 27 28 30 23 5 3 5 4 4 4 8 3 4 4 5 8 3 4 2 1 3 4 8 6 2 2 4 2 1 1 2 3 5 5 2 2 4
13 15 17 18 19 21 23 25 25 26 27 29 21 5 3 4 5 3 5 8 2 4 6 8 9 2 3 2 0 3 6 6 5 8 3 6 3 2 2 2 3 3 0 4 1 2 2
12 15 17 18 19 21 23 26 27 28 30 29 3 4 4 7 4 4 6 5 4 3 5 4 5 6 5 6 5 6 4 6 7 5 3 4 5 3 2 3 2 3 2 3 3 1 3
12 15 16 18 19 20 23 25 28 28 31 25 3 4 5 8 4 5 5 4 4 6 6 4 4 4 5 5 5 5 5 3 6 7 5 5 1 6 3 2 4 1 3 1 3 5 4
12 13 15 17 18 20 23 25 26 27 28 9 4 4 7 4 5 3 3 3 4 6 7 6 3 5 4 6 4 6 4 2 6 3 3 3 1 4 7 1 1 2 1 3 5 5 1
11 12 14 16 18 18 21 24 25 25 20 4 3 3 6 6 5 5 2 4 4 7 6 6 7 6 6 4 4 2 5 1 4 4 2 4 2 4 4 6 7 5 3 4 0 3 3
11 11 13 15 16 18 19 22 24 26 25 3 3 5 7 7 1 3 5 5 4 7 5 7 5 6 5 4 4 3 6 7 5 2 7 3 3 5 5 2 5 6 5 3 4 2 2
8 9 11 13 15 16 18 21 24 27 28 4 5 1 3 4 6 6 4 5 11 7 7 9 6 10 7 4 8 5 8 6 7 8 6 4 3 4 6 8 4 5 6 7 5 7 5
7 8 9 12 14 16 19 21 24 26 24 6 4 3 5 3 4 6 8 8 9 6 5 5 6 8 7 4 3 5 7 4 5 7 5 6 4 6 5 9 11 11 11 12 11 8 9
6 7 7 10 12 14 16 17 19 22 14 5 4 4 4 6 5 5 3 5 7 5 5 8 6 5 5 6 8 8 7 8 8 3 4 3 1 4 5 6 7 3 12 9 15 12 4
4 5 6 8 10 12 15 17 18 19 13 2 2 2 4 2 4 3 3 4 6 4 1 6 3 4 3 7 8 8 10 13 10 12 8 4 3 2 4 6 3 5 12 12 15 13 11
2 4 5 6 8 9 12 14 15 16 15 4 3 4 3 2 3 7 8 4 6 8 4 2 3 2 4 6 4 7 5 2 5 9 11 12 5 2 2 2 3 9 10 7 5 7 10
2 2 4 4 6 6 9 11 12 13 13 4 3 2 3 4 2 3 3 4 2 4 7 4 6 6 3 2 3 2 3 4 4 8 4 5 6 5 1 0 3 2 10 18 5 4 9
1 2 3 3 3 4 5 7 9 11 11 4 2 3 4 2 3 3 2 1 3 2 1 4 6 6 4 3 2 2 3 4 3 5 4 4 2 5 7 4 1 3 12 9 1 6 12
3 2 3 3 4 1 2 4 6 9 10 4 3 4 3 1 5 2 3 1 2 2 2 4 5 5 4 3 2 3 3 3 3 4 3 3 2 3 4 2 5 11 5 6 7 5 6
4 3 2 2 4 2 1 2 5 5 6 4 2 3 2 2 6 2 6 8 5 5 3 2 3 2 3 2 2 2 3 3 1 3 5 2 2 3 5 6 10 3 2 6 5 4 4
Wind_Direction
49 42 36 31 26 21 14 12 7 1 357 353 349 345 341 337 333 329 325 321 317 314 313 315 321 327 322 358 253 186 207 234 268 268 258 334 9 340 358 312 333 319 301 311 310 316 246
41 37 30 25 21 15 10 9 4 358 354 350 346 342 338 333 328 324 321 318 314 310 308 309 316 341 305 297 168 156 206 196 268 276 330 61 17 323 288 286 346 284 296 295 298 283 266
31 27 22 15 14 9 9 6 1 356 352 347 343 340 336 330 324 321 319 316 311 306 302 302 305 253 295 235 123 144 173 221 30 23 2 20 39 41 329 317 283 272 307 309 259 241 233
36 31 28 17 8 6 4 359 356 354 350 346 342 338 333 328 323 320 318 314 306 300 298 289 241 249 245 257 328 103 260 272 205 246 175 28 31 284 202 259 339 273 44 345 294 165 241
34 26 19 10 4 1 360 357 353 350 347 343 340 336 332 327 323 322 319 311 303 290 241 123 113 169 288 355 59 293 151 243 230 201 188 222 27 221 346 64 352 349 277 279 311 157 135
27 22 18 13 9 5 1 357 353 348 345 342 338 333 328 326 325 325 324 312 284 345 232 209 256 2 298 74 18 338 302 347 346 315 326 159 69 44 357 77 271 305 338 324 298 295 169
31 22 17 12 8 4 359 355 350 346 343 340 336 332 329 327 327 325 340 0 14 11 19 355 263 279 2 314 162 227 227 109 323 330 234 226 73 247 242 206 198 300 329 302 283 222 276
31 21 16 14 10 6 1 357 352 348 344 339 336 331 329 329 325 323 326 66 145 204 322 315 254 275 236 223 308 258 105 151 167 234 276 337 257 234 236 241 40 343 301 288 291 331 17
25 20 16 13 9 5 0 356 352 349 346 341 336 331 330 330 323 334 67 38 344 142 336 302 215 314 114 101 286 199 125 313 229 275 287 184 251 158 126 321 320 281 233 280 274 330 330
19 13 11 8 7 2 357 353 350 347 343 338 334 331 331 332 351 330 63 338 336 73 73 262 169 224 116 219 299 356 60 103 312 251 265 254 197 140 5 283 227 278 356 19 7 50 278
14 19 9 6 5 359 356 353 349 346 341 335 333 330 332 329 276 33 302 321 315 63 63 77 103 182 160 208 211 320 12 44 246 270 39 258 175 217 283 265 2 238 327 271 232 311 16
18 17 14 7 2 357 353 351 348 344 340 335 333 328 335 15 279 259 311 315 46 45 93 57 135 163 162 245 245 175 12 234 245 302 233 231 183 182 208 280 223 321 332 342 100 101 2
20 15 9 4 0 356 352 349 347 344 339 335 331 326 325 297 298 303 335 29 46 73 323 348 342 354 336 211 226 173 191 290 9 358 346 327 220 71 87 340 9 43 44 358 25 19 224
20 13 7 2 0 358 353 350 348 345 339 336 330 320 277 226 293 341 28 52 70 59 342 1 358 304 230 29 4 237 359 18 20 20 326 319 329 133 155 195 194 234 142 149 224 191 266
9 8 4 0 359 357 354 351 348 345 341 338 327 334 324 286 310 61 64 51 72 6 338 328 312 331 38 31 271 342 68 10 38 22 29 3 321 322 45 359 97 325 16 190 187 297 63
9 5 4 5 2 356 354 352 350 347 342 337 332 339 300 289 332 60 73 113 94 34 330 330 1 28 28 347 35 25 70 346 340 353 56 296 310 261 285 8 295 186 248 41 10 275 282
10 8 8 6 2 358 355 353 351 350 345 335 39 34 262 318 64 46 95 92 76 45 9 24 2 345 9 360 335 352 2 358 345 320 329 17 63 294 14 210 218 39 314 214 153 153 172
8 8 7 5 3 357 355 353 351 350 350 19 348 43 282 20 53 56 65 60 18 3 3 353 43 20 13 349 324 19 100 65 341 348 11 53 273 271 240 258 188 177 14 116 118 302 326
16 15 11 6 3 358 354 352 349 349 360 325 22 290 319 62 63 348 100 71 70 22 15 7 22 3 12 312 345 55 108 118 29 53 48 337 332 323 331 347 1 54 4 50 256 84 252
16 14 12 9 7 359 356 354 350 348 345 72 60 24 332 31 13 71 9 10 107 30 52 6 29 35 359 344 360 351 39 9 329 12 351 169 253 188 208 169 331 313 320 4 98 104 281
13 10 11 7 9 7 3 359 357 350 345 82 38 72 193 9 344 358 36 41 52 19 8 19 50 29 3 316 335 46 7 351 344 28 23 49 276 296 300 298 295 258 265 281 255 229 196
15 6 11 11 12 8 5 3 1 359 351 63 88 53 352 348 346 21 11 357 51 6 15 37 40 355 346 43 3 315 358 3 266 349 31 359 293 331 297 284 280 277 271 262 241 255 264
7 8 9 8 15 13 7 9 7 8 9 56 331 350 95 322 3 66 26 15 21 25 25 47 0 345 19 347 314 275 246 244 250 302 353 291 300 354 269 350 305 17 338 315 79 43 41
18 21 11 10 22 17 14 15 12 8 23 106 306 72 55 4 60 61 46 14 12 354 269 302 19 16 296 305 297 282 254 250 239 245 196 251 333 325 277 349 252 120 24 61 86 59 47
6 11 14 14 22 23 19 18 16 12 11 48 345 56 60 31 3 24 12 9 7 349 349 11 11 273 314 328 334 335 336 44 253 227 217 203 176 277 238 259 251 19 11 342 321 47 28
331 350 14 41 35 27 24 21 20 15 9 41 10 50 62 103 320 23 6 7 46 356 353 343 345 315 337 344 5 339 308 295 340 333 88 170 191 158 78 353 279 39 346 335 315 163 357
303 327 342 5 26 23 18 18 18 17 15 48 325 34 70 77 292 54 71 324 20 47 268 311 328 330 28 4 319 246 270 300 324 8 339 355 109 231 254 233 233 4 353 329 265 333 330
256 296 307 350 332 359 13 9 17 20 19 49 283 33 96 51 284 338 1 10 344 107 153 276 11 350 353 27 345 336 351 355 347 319 7 11 357 334 356 298 245 357 5 44 269 284 312
247 264 290 311 356 158 122 344 351 9 14 51 21 355 36 124 244 293 237 237 206 189 145 281 205 348 247 52 19 14 336 337 201 263 315 276 138 227 189 241 316 3 319 252 254 276 295